COSMOS 2535 DEB, 44633

Orbit data source: Space-Track

COSMOS 2535 DEB, 44633 is space debris in SSO originally from a launch on Wed, 10 Jul 2019 UTC launched from the Plesetsk Missile And Space Complex (PKMTR). Debris objects in space refer to the collection of defunct objects orbiting the Earth. Examples of debris include non-operational satellites, rocket bodies, and fragments generated from explosions, collisions, or faulty payload assembly.

Loading next visibility...
Identifier
44633, 2019-039K
Orbit
SSO
Country
Flag of CISCIS
Related business
Manufacturer
Unknown
Mission
Spacecraft
Bus & Motor
Unknown
Mass
Unknown
Launch date (UTC)
2019-07-10 (7 years ago)
Launch vehicle
Unknown
Launch site
Plesetsk Missile And Space Complex (PKMTR)
Object type
Payload
Rocket body
Debris
Shape & HBR
Unknown shape, 0.1 m
Radar Cross Section
Small (<0.1 m²)

Expand to show TLE details & history
Last TLE update: 4 days ago

TLE from 4 days ago
0 COSMOS 2535 DEB
1 44633U 19039K   26119.23081917  .00001415  00000-0  18018-3 0  9994
2 44633  97.7258 109.3297 0048464 204.3382 155.5543 14.82293072353433
Epoch: 2026-04-29T05:32Z
TLE epoch observation values (Epoch: 2026-04-29T05:32:22.776Z)
Latitude
-0.00001°
Longitude
169.04005°
Altitude
656.044 km
Speed
7.513 km/s
True Right ascension
07h 17m 19s
True Declination
0° 00' 00"
Sunlit
Object was in daylight at epoch
Visualization orbit readout
Latitude
Unknown
Longitude
Unknown
Altitude
Unknown
Speed
Unknown
Apparent Right ascension
Unknown
Apparent Declination
Unknown
Sunlit
N/A
Visualization observer readout
Local Sidereal Time
06:01:07
Azimuth
Unknown
Elevation
Unknown
Doppler factor
Unknown
Orbital elements
Apogee altitude
653.037 km
Perigee altitude
585.214 km
Semi-major axis
6,997.262 km
Eccentricity
0.00485
Inclination
97.7258°
RAAN
109.3297°
Arg. of periapsis
204.3382°
True anomaly
155.78286°
Mean anomaly
155.5543°
Eccentric anomaly
155.66871°
Mean motion
3.7081 °/min
Orbital period
97.08 mins
BSTAR
0.00018018
Loading maneuver chart data...
Computing Atmospheric mass density...
Loading historical data...
Loading historical data...
Loading historical data...
Loading historical data...
Loading historical data...
Loading historical data...
Loading historical data...

Documentation

Showing up to 5 results
|